Location: Unspecified
(0.0000°N, 0.0000°E)
Time: 08:39:09
(UTC+00:00)

CZ-4C DEB - Pass Details

Date: 12 March 2026
Orbit: 805 x 1381 km, 63.4° (Epoch: 18 April)

Event Time Altitude Azimuth Distance (km) Brightness Sun altitude
Rises 18:41:41 0° 8° (N) 4,201 ? -8.0°
Reaches altitude 10° 18:45:28 10° 25° (NNE) 3,316 ? -8.9°
Maximum altitude 18:50:54 19° 67° (ENE) 2,756 ? -10.3°
Enters shadow 18:55:46 12° 105° (ESE) 3,301 ? -11.5°
